Regional Weather Roundup
Issued by NWS Grand Forks, ND

Home | Current Version | Previous Version | Text Only | Print | Product List | Glossary Off
Versions: 1 2 3 4 5 6 7 8 9 10 11 12 13 14 15 16 17 18 19 20 21 22 23 24 25 26 27 28 29 30 31 32 33 34 35 36 37 38 39 40 41 42 43 44 45 46 47 48 49 50

000
ASUS43 KFGF 250531
RWRFGF
PRAIRIE TO PINES  WEATHER ROUNDUP
NATIONAL WEATHER SERVICE EASTERN NORTH DAKOTA/GRAND FORKS ND
1200 AM CDT MON SEP 25 2017

 **SATELLITE DATA USED TO AUGMENT SKY COVER AT AUTOMATED STATIONS**
 *****  WEATHER ACROSS EASTERN NORTH DAKOTA  *****

CITY           SKY/WX    TMP DP  RH WIND       PRES   REMARKS
GRAND FORKS    CLOUDY    51  51 100 NW9       30.01S
GRAND FRKS AFB CLOUDY    50  50 100 N9        30.03F
DEVILS LAKE    MOCLDY    47  45  93 NW12      30.07S
FARGO          CLOUDY    51  51 100 NW8       30.01S
WAHPETON ARPT  CLOUDY    50  46  87 N8        30.03R
$$

 ***** WEATHER ACROSS CENTRAL AND WESTERN NORTH DAKOTA  *****

CITY           SKY/WX    TMP DP  RH WIND       PRES   REMARKS
BISMARCK       CLOUDY    47  46  97 NW3       30.12R
MINOT          MOCLDY    48  45  89 W7        30.10S
JAMESTOWN      FAIR      47  45  93 NW8       30.06S
MINOT AFB      CLOUDY    46  44  94 NW7       30.09S
GARRISON         N/A     45  45 100 NW6       30.11R
WILLISTON      CLOUDY    46  43  89 SW5       30.13F
DICKINSON      CLOUDY    44  42  93 NW3       30.12R
HETTINGER      CLOUDY    44  41  89 NW5       30.15R
$$

 *****  OTHER AIRPORT OBSERVATIONS IN OUR AREA  *****

CITY           SKY/WX    TMP DP  RH WIND       PRES   REMARKS
WALHALLA       FAIR     N/A N/A N/A NW12G17   30.05R
GRAFTON AIRPOR NOT AVBL
VALLEY CITY AR NOT AVBL
CANDO          CLOUDY    46  46 100 NW7       30.09F
CAVALIER APRT    N/A     50  48  93 N10G17    30.03R
GWINNER        CLOUDY    50  46  87 N12       30.05R
SHEYENNE NWR     N/A     51  49  93 N6        29.95S
ROLLA          CLOUDY    46  46 100 N10       30.09R
 ***** THE ABOVE OBSERVATIONS ARE NON NWS ARE NOT QUALITY
       CONTROLLED AND MAY MIS-REPORT RAIN FOR SNOW...
$$

  *****  WEATHER ACROSS NORTHERN MINNESOTA  *****

CITY           SKY/WX    TMP DP  RH WIND       PRES   REMARKS
FLAG ISLAND    CLOUDY    50  48  93 NW14      29.91R
WARROAD        CLOUDY    48  45  87 NW7       29.96R FOG
ROSEAU         CLOUDY    50  45  81 W8        29.97R
HALLOCK        CLOUDY    50  48  93 NW12      30.01R
THF RVR FALLS  CLOUDY    49  48  97 NW14      29.99S
BAUDETTE       CLOUDY    51  51 100 W9        29.93R
WASKISH        CLOUDY    52  50  93 W12G17    29.95R
CROOKSTON      CLOUDY    50  48  93 N10       30.01R
STEPHEN NDAWN    N/A     50  48  93 NW10        N/A
GREENBUSH NDAW   N/A     48  46  93 NW7         N/A
$$
  *****  WEATHER ACROSS CENTRAL AND WEST MINNESOTA  *****

CITY           SKY/WX    TMP DP  RH WIND       PRES   REMARKS
FOSSTON        DRIZZLE   48  46  93 NW8       30.00R
BEMIDJI        CLOUDY    50  49  97 W10       29.96S
PARK RAPIDS    MOCLDY    52  49  89 NW10      29.97R
ELBOW LAKE     CLOUDY    51  50  97 W12       30.02R
WADENA         FAIR      50  50 100 NW7       29.99R
DETROIT LAKES  CLOUDY    50  48  93 NW10      30.01R
MOORHEAD       CLOUDY    50  48  93 NW7       30.03R
FERGUS FALLS   CLOUDY    52  52 100 N6        30.02R FOG
MORRIS MN      CLOUDY    54  52  94 NW9       30.01R
STAPLES        CLOUDY    52  50  93 NW10      29.98R
$$
  *****  WEATHER ELSEWHERE ACROSS MINNESOTA  *****

CITY           SKY/WX    TMP DP  RH WIND       PRES   REMARKS
DULUTH         FAIR      65  65 100 W7        29.88S
INTRNTL FALLS  MOCLDY    56  53  90 W9        29.89R
ELY            MOCLDY    64  64 100 SW6       29.88R
CLOQUET        FAIR      66  63  88 W7        29.90R
WHEATON        CLOUDY    52  48  87 NW9       30.05R
BRAINERD       CLOUDY    58  55  90 W13       29.95R
HIBBING        MOCLDY    63  62  97 W9        29.89R
ALEXANDRIA     CLOUDY    53  50  89 NW10      30.00S
SAINT CLOUD    CLOUDY    60  60 100 W12       29.95R
MINNEAPOLIS    CLOUDY    72  67  84 W7        29.93R
$$

  *****  WEATHER ACROSS SOUTH DAKOTA  *****

CITY           SKY/WX    TMP DP  RH WIND       PRES   REMARKS
SIOUX FALLS    RAIN      56  55  97 N10       30.00R FOG
BROOKINGS      CLOUDY    53  51  93 N10       30.03R
WATERTOWN      CLOUDY    50  49  96 N12       30.01S
HURON          CLOUDY    52  49  89 N10       30.05R
SISSETON         N/A     53  49  86 NW9       30.03R
ABERDEEN       CLOUDY    50  47  89 N13       30.07R
MITCHELL       CLOUDY    54  50  86 N8        30.05R
PIERRE         LGT RAIN  49  46  90 N12       30.08R
MOBRIDGE       CLOUDY    51  46  83 N12       30.07S
RAPID CITY     NOT AVBL
$$

  *****  SOME WEATHER IN NEARBY STATES *****

CITY           SKY/WX    TMP DP  RH WIND       PRES   REMARKS
GLASGOW MT     FAIR      40  37  89 E8        30.11S
GREAT FALLS MT FAIR      41  28  60 S8        30.05S
CHEYENNE WY    LGT RAIN  40  37  89 N5        30.10S
SCOTTSBLUFF NE CLOUDY    47  43  86 NE15      30.06F
OMAHA NE       CLOUDY    65  60  84 W14       29.96R
DES MOINES IA  FAIR      74  63  68 SE7       29.91F
DAVENPORT IA   FAIR      70  63  78 SE6       29.99S
CHICAGO IL     FAIR      73  61  65 SE5       30.00F
EAU CLAIRE WI  FAIR      75  63  66 SW9       29.92R
LA CROSSE WI   FAIR      76  65  68 SE5       29.93S
$$

  *****  SOME NATIONAL WEATHER *****

CITY           SKY/WX    TMP DP  RH WIND       PRES   REMARKS
LA GUARDIA NY  FAIR      74  67  78 NE5       30.03S
RALEIGH NC     MOCLDY    67  60  78 NE5       30.02F
ATLANTA GA     FAIR      74  64  71 NE7       30.01F
NEW ORLEANS LA FAIR      77  69  76 E5        29.91S
OKLAHOMA CITY  MOCLDY    75  63  66 SE9       29.90F
ALBUQUERQUE NM FAIR      64  16  15 N12       29.93S
SALT LAKE CITY MOCLDY    45  43  93 SE9       30.11S
LOS ANGELES CA FAIR      73  47  39 NW5       29.86S
BOISE ID       FAIR      52  35  52 NW9       30.04R
SEATTLE WA     MOCLDY    62  48  60 CALM      30.11R
$$

*** WEATHER ACROSS MANITOBA...SASKATCHEWAN AND ONTARIO ***
                ***ONTARIO***

CITY           SKY/WX    TMP DP  RH WIND       PRES   REMARKS
GERALDTON      PTCLDY    66  63  88 S7        29.80F
THUNDER BAY    MOCLDY    63  63 100 CALM      29.81
SIOUX LOOKOUT  LGT RAIN  57  57 100 W8        29.80R FOG
TORONTO        CLEAR     75  64  69 W2        30.09S
BIG TROUT LK   RAIN      45  45 100 NE8       29.92R
PICKLE LAKE    NOT AVBL
DRYDEN         CLOUDY    54  54 100 W8        29.84R FOG
KENORA         LGT RAIN  50  50 100 NW9       29.90R VSB 3/4
$$
                *** MANITOBA***

CITY           SKY/WX    TMP DP  RH WIND       PRES   REMARKS
BRANDON        CLOUDY    45  43  93 NW6       30.09R
DAUPHIN        CLOUDY    48  46  93 NW6       30.10R
ISLAND LAKE    NOT AVBL
PILOT MOUND      N/A     46  45  93 NW8         N/A
THE PAS        MOCLDY    43  39  87 E5        30.12S
THOMPSON       CLOUDY    37  34  87 N3        30.14S
WINNIPEG       CLOUDY    48  46  93 N13       30.02R
LYNN LAKE      CLOUDY    36  36 100 SE5       30.12S
CHURCHILL      CLOUDY    37  32  81 S3        30.18S
GILLAM         CLOUDY    37  36  93 NE12      30.15R
$$
                ***SASKATCHEWAN***

CITY           SKY/WX    TMP DP  RH WIND       PRES   REMARKS
ESTEVAN        CLOUDY    46  45  93 W3        30.12S
KINDERSLEY     PTCLDY    43  32  65 SE10      30.02S
LLOYDMINSTER   CLOUDY    48  37  66 S10       29.97S
PRINCE ALBERT  CLOUDY    46  41  81 NE5       30.07F
REGINA         CLOUDY    45  36  70 S6        30.11S
YORKTON        CLOUDY    46  39  76 W6        30.10S
N. BATTLEFORD  CLOUDY    43  36  75 SE6       30.04F
LA RONGE       CLEAR     39  37  93 SW2       30.05S
SASKATOON      CLEAR     41  37  87 S6        30.06F
SWIFT CURRENT    N/A     43  32  65 S10       30.05F
$$
NOTE: THESE ARE AUTOMATED STATIONS WITH LIMITED QUALITY CONTROL
      "FAIR" INDICATES FEW OR NO CLOUDS BELOW 12,000 FEET WITH NO
      SIGNIFICANT WEATHER AND/OR OBSTRUCTIONS TO VISIBILITY.
      SKY/WX - SKY CONDITION AND SIGNIFICANT WEATHER.
      TMP - AIR TEMPERATURE.    DP   - DEWPOINT TEMPERATURE.
      RH  - RELATIVE HUMIDITY.  PRES - PRESSURE.
      HX  - HEAT INDEX.         WCI  - WIND CHILL INDEX.
$



USA.gov is the U.S. government's official web portal to all federal, state and local government web resources and services.